Weather History for Poplar Bluff, MO

Change the Weather History Date:

Thursday, July 18, 2013

  Actual Average Record
Temperature  
Mean Temperature 84 °F -  
Max Temperature 96 °F 92 °F 104 °F (1944)
Min Temperature 75 °F 68 °F 54 °F (1926)
Cooling Degree Days 19    
Growing Degree Days 34 (Base 50)    
Moisture  
Dew Point 72 °F    
Average Humidity 70    
Maximum Humidity 87    
Minimum Humidity 47    
Precipitation  
Precipitation 0.01 in - - ()
Sea Level Pressure  
Sea Level Pressure 30.10 in    
Wind  
Wind Speed 2 mph (ESE)    
Max Wind Speed 13 mph    
Max Gust Speed 16 mph    
Visibility 9 miles    
Events Rain , Thunderstorm    
Averages and records for this station are not official NWS values.
T = Trace of Precipitation, MM = Missing Value Source: NWS Daily Summary

Daily Weather History Graph

Daily Weather History Graph

Search for Another Location

Airport:

Trip Planner

Search our weather history database for the weather conditions in past years. The results will help you decide how hot, cold, wet, or windy it might be!

Date:

Astronomy

Jul. 18, 2013 Rise Set
Actual Time 5:56 AM CDT 8:18 PM CDT
Civil Twilight 5:26 AM CDT 8:47 PM CDT
Nautical Twilight 4:50 AM CDT 9:24 PM CDT
Astronomical Twilight 4:10 AM CDT 10:04 PM CDT
Moon 4:16 PM CDT (7/18) 1:45 AM CDT (7/18)
Length of Visible Light 15h 21m
Length of Day
14h 21m
Waxing Gibbous, 77% of the Moon is Illuminated
Jul 18
Waxing Gibbous
Jul 22
Full
Jul 29
Last Quarter
Aug 6
New
Aug 14
First Quarter

Hourly Weather History & Observations

Time (CDT) Temp. Heat Index Dew Point Humidity Pressure Visibility Wind Dir Wind Speed Gust Speed Precip Events Conditions
12:53 AM 80.1 °F 84.2 °F 73.0 °F 79% 30.19 in 10.0 mi Calm Calm - N/A   Clear
1:53 AM 78.1 °F - 73.0 °F 84% 30.18 in 10.0 mi NW 3.5 mph - N/A   Clear
2:53 AM 79.0 °F - 72.0 °F 79% 30.16 in 10.0 mi Calm Calm - N/A   Clear
3:53 AM 77.0 °F - 71.1 °F 82% 30.15 in 10.0 mi NW 3.5 mph - N/A   Clear
4:53 AM 77.0 °F - 71.1 °F 82% 30.15 in 10.0 mi Calm Calm - N/A   Clear
5:53 AM 75.0 °F - 71.1 °F 87% 30.15 in 10.0 mi NW 3.5 mph - N/A   Clear
6:53 AM 77.0 °F - 71.1 °F 82% 30.16 in 10.0 mi Calm Calm - N/A   Clear
7:53 AM 82.0 °F 87.4 °F 73.0 °F 74% 30.16 in 10.0 mi Calm Calm - N/A   Clear
8:53 AM 87.1 °F 95.4 °F 73.9 °F 65% 30.16 in 10.0 mi Calm Calm - N/A   Clear
9:53 AM 89.1 °F 97.0 °F 73.0 °F 59% 30.16 in 10.0 mi Calm Calm - N/A   Clear
10:53 AM 91.9 °F 100.7 °F 73.0 °F 54% 30.15 in 10.0 mi Calm Calm - N/A   Clear
11:53 AM 93.0 °F 99.0 °F 70.0 °F 47% 30.14 in 10.0 mi ESE 4.6 mph - N/A   Clear
12:53 PM 93.9 °F 102.1 °F 72.0 °F 49% 30.10 in 10.0 mi East 6.9 mph - N/A   Clear
1:53 PM 93.9 °F 100.8 °F 71.1 °F 47% 30.07 in 10.0 mi East 6.9 mph - N/A   Clear
2:53 PM 91.9 °F 98.4 °F 71.1 °F 50% 30.05 in 10.0 mi East 4.6 mph - N/A   Clear
3:39 PM 89.6 °F 98.2 °F 73.4 °F 59% 30.05 in 8.0 mi SE 10.4 mph - N/A Thunderstorm Clear
3:53 PM 88.0 °F 94.7 °F 72.0 °F 59% 30.04 in 9.0 mi ESE 12.7 mph 16.1 mph N/A Thunderstorm Clear
4:09 PM 84.2 °F 88.4 °F 69.8 °F 62% 30.07 in 10.0 mi ESE 9.2 mph - N/A   Clear
4:53 PM 82.9 °F 87.0 °F 70.0 °F 65% 30.07 in 9.0 mi Calm Calm - 0.00 in Rain Light Rain
5:53 PM 82.0 °F 86.7 °F 72.0 °F 71% 30.07 in 8.0 mi Calm Calm - 0.00 in Rain Light Rain
6:53 PM 81.0 °F 86.2 °F 73.9 °F 79% 30.05 in 5.0 mi Calm Calm - 0.01 in Rain Light Rain
7:53 PM 80.1 °F 84.5 °F 73.9 °F 81% 30.04 in 4.0 mi ESE 3.5 mph - 0.00 in   Haze
8:53 PM 79.0 °F - 73.9 °F 84% 30.04 in 4.0 mi Calm Calm - N/A   Haze
9:53 PM 78.1 °F - 72.0 °F 81% 30.04 in 8.0 mi SW 3.5 mph - N/A   Clear
10:53 PM 77.0 °F - 72.0 °F 84% 30.04 in 10.0 mi SSW 4.6 mph - N/A   Clear
11:53 PM 75.9 °F - 70.0 °F 82% 30.04 in 10.0 mi WSW 3.5 mph - N/A   Clear